DateTimeUTC,F1_A11,F1_S11,BsB_S11,BsG_S11,BsR_S11,BbsB_S11,BbsG_S11,BbsR_S11,BaB_A11,BaG_A11,BaR_A11,Tu_S11,T_S11,Uu_S11,U_S11,P_S11,T1_A11
2021-06-05T20:00:00Z,00000200,20000000,,,,,,,0000.07,0000.05,-000.18,19.3,25.8,09.8,06.6,0675.3,31.1
2021-06-05T20:01:00Z,00000200,20000000,,,,,,,-000.07,-000.13,0000.20,19.3,25.9,09.7,06.5,0675.3,31.1
2021-06-05T20:02:00Z,00000200,20000000,,,,,,,-000.19,-000.01,-000.08,19.3,25.9,09.7,06.5,0675.3,31.1
2021-06-05T20:03:00Z,00000200,60000000,,,,,,,0000.41,0000.05,0000.33,19.3,25.9,09.7,06.5,0675.3,31.1
2021-06-05T20:04:00Z,00000200,40000000,0000.78,0000.71,0000.37,-000.03,0000.26,0000.25,0000.43,0000.60,0000.34,19.4,25.7,09.6,06.6,0676.2,31.1
2021-06-05T20:05:00Z,00000200,00000000,0000.88,0000.85,0000.43,0000.31,0000.03,0000.01,0000.54,0000.48,0000.60,19.5,25.7,09.7,06.6,0676.2,31.1
2021-06-05T20:06:00Z,00000200,00000000,0000.36,0000.46,0000.31,0000.18,0000.23,-000.03,0000.37,0000.46,-000.01,19.5,25.6,09.7,06.7,0676.2,31.1
2021-06-05T20:07:00Z,00000200,00000000,0001.14,0000.74,0000.60,0000.37,0000.21,0000.29,0000.26,0000.26,0000.28,19.5,25.6,09.7,06.7,0676.2,31.1
2021-06-05T20:08:00Z,00000200,00000000,0001.35,0000.63,0000.34,0000.24,0000.28,0000.33,0000.43,0000.06,0000.18,19.5,25.6,09.7,06.6,0676.2,31.1
2021-06-05T20:09:00Z,00000200,00000000,0001.08,0000.68,0000.37,0000.27,0000.09,0000.23,0000.22,0000.36,-000.04,19.5,25.6,09.7,06.6,0676.2,31.1
2021-06-05T20:10:00Z,00000200,00000000,0000.60,0000.45,0000.16,0000.11,0000.25,-000.10,0000.51,0000.37,0000.30,19.5,25.6,09.7,06.6,0676.3,31.1
2021-06-05T20:11:00Z,00000200,00000000,0000.28,0000.41,0000.34,0000.18,0000.20,0000.26,0000.36,0000.43,0000.13,19.5,25.6,09.6,06.6,0676.3,31.1
2021-06-05T20:12:00Z,00000200,00000000,0001.11,0000.70,0000.32,-000.31,0000.28,-000.08,0000.11,0000.09,0000.27,19.5,25.6,09.6,06.6,0676.3,31.1
2021-06-05T20:13:00Z,00000200,00000000,0001.29,0000.60,0000.13,0000.26,0000.08,0000.32,0000.69,0000.39,0000.35,19.5,25.6,09.6,06.6,0676.3,31.1
2021-06-05T20:14:00Z,00000200,00000000,0000.94,0001.14,0000.41,-000.31,0000.42,0000.34,0000.50,0000.68,0000.32,19.5,25.6,09.6,06.6,0676.3,31.1
2021-06-05T20:15:00Z,00000200,00000000,0001.09,0000.70,-000.01,-000.05,0000.23,-000.17,0000.09,0000.29,0000.36,19.5,25.6,09.6,06.6,0676.3,31.1
2021-06-05T20:16:00Z,00000200,00000000,0000.74,0000.51,0000.12,0000.19,0000.10,0000.02,0000.78,0000.25,0000.61,19.5,25.6,09.6,06.6,0676.3,31.1
2021-06-05T20:17:00Z,00000200,00000000,0000.60,0000.79,0000.55,0000.47,-000.03,0000.15,0000.32,0000.82,-000.14,19.5,25.6,09.5,06.6,0676.3,31.1
2021-06-05T20:18:00Z,00000200,00000000,0001.34,0000.54,0000.22,-000.23,-000.06,0000.16,0000.16,0000.36,0000.61,19.5,25.6,09.7,06.7,0676.3,31.1
2021-06-05T20:19:00Z,00000200,00000000,0001.31,0000.64,0000.30,0000.33,0000.11,0000.28,0001.01,0000.35,0000.28,19.5,25.6,09.6,06.6,0676.3,31.1
2021-06-05T20:20:00Z,00000200,00000000,0001.04,0000.65,0000.01,0000.30,0000.06,-000.27,0000.05,0000.07,0000.24,19.5,25.6,09.7,06.7,0676.3,31.1
2021-06-05T20:21:00Z,00000200,00000000,0000.58,0000.38,0000.48,0000.08,0000.18,0000.31,0000.40,0000.67,0000.21,19.5,25.6,09.6,06.6,0676.3,31.1
2021-06-05T20:22:00Z,00000200,00000000,0001.31,0000.56,0000.21,0000.12,0000.15,-000.06,0000.55,0000.03,0000.47,19.5,25.5,09.6,06.6,0676.3,31.1
2021-06-05T20:23:00Z,00000200,00000000,0001.22,0000.58,0000.43,0000.32,0000.15,0000.02,0000.46,0000.57,0000.16,19.5,25.6,09.6,06.6,0676.3,31.1
2021-06-05T20:24:00Z,00000200,00000000,0000.68,0000.67,0000.41,0000.01,0000.41,0000.35,0000.53,0000.41,0000.06,19.5,25.6,09.6,06.6,0676.3,31.1
2021-06-05T20:25:00Z,00000200,00000000,0000.88,0000.62,0000.22,0000.14,0000.11,0000.12,0000.19,0000.06,0000.48,19.5,25.6,09.6,06.6,0676.3,31.1
2021-06-05T20:26:00Z,00000200,00000000,0000.55,0000.65,0000.46,0000.32,0000.11,0000.47,0000.38,0000.64,0000.29,19.5,25.6,09.6,06.6,0676.3,31.1
2021-06-05T20:27:00Z,00000200,00000000,0000.74,0000.24,0000.60,0000.13,0000.17,0000.30,0000.28,0000.14,0000.50,19.5,25.6,09.6,06.6,0676.3,31.1
2021-06-05T20:28:00Z,00000200,00000000,0001.05,0000.74,0000.52,0000.24,0000.32,0000.33,0000.38,0000.38,0000.03,19.5,25.6,09.6,06.6,0676.3,31.1
2021-06-05T20:29:00Z,00000200,00000000,0000.61,0000.45,0000.21,-000.05,0000.02,0000.15,0000.35,0000.45,0000.27,19.5,25.6,09.6,06.6,0676.3,31.1
2021-06-05T20:30:00Z,00000200,00000000,0000.69,0000.63,0000.20,0000.43,0000.48,-000.06,0000.28,0000.21,0000.11,19.5,25.5,09.6,06.6,0676.3,31.1
2021-06-05T20:31:00Z,00000200,00000000,0000.91,0000.86,0000.24,0000.28,0000.21,0000.18,0000.39,0000.69,0000.39,19.5,25.6,09.5,06.6,0676.3,31.1
2021-06-05T20:32:00Z,00000200,00000000,0001.06,0000.74,0000.62,0000.09,0000.33,0000.37,0000.44,0000.36,0000.26,19.5,25.6,09.6,06.6,0676.3,31.1
2021-06-05T20:33:00Z,00000200,00000000,0001.10,0000.73,0000.30,-000.04,0000.15,0000.22,0000.55,0000.18,0000.12,19.5,25.6,09.5,06.6,0676.3,31.1
2021-06-05T20:34:00Z,00000200,00000000,0000.55,0000.66,0000.05,-000.01,0000.30,0000.09,0000.34,0000.26,0000.33,19.5,25.6,09.5,06.5,0676.3,31.1
2021-06-05T20:35:00Z,00000200,00000000,0000.55,0000.57,0000.31,0000.40,0000.33,0000.16,0000.08,0000.01,-000.03,19.5,25.6,09.6,06.6,0676.3,31.1
2021-06-05T20:36:00Z,00000200,00000000,0001.04,0000.89,0000.47,-000.03,0000.39,0000.10,0000.66,0000.51,0000.83,19.4,25.6,09.4,06.5,0676.3,31.1
2021-06-05T20:37:00Z,00000200,00000000,0000.80,0000.47,0000.20,0000.12,0000.28,0000.25,0000.49,0000.20,0000.27,19.4,25.6,09.5,06.5,0676.3,31.1
2021-06-05T20:38:00Z,00000200,00000000,0000.85,0000.68,0000.45,-000.05,0000.13,0000.25,0000.44,0000.58,-000.02,19.5,25.6,09.4,06.5,0676.3,31.1
2021-06-05T20:39:00Z,00000200,00000000,0001.43,0000.77,0000.12,-000.36,0000.15,-000.08,0000.08,0000.08,0000.27,19.4,25.6,09.5,06.5,0676.3,31.1
2021-06-05T20:40:00Z,00000200,00000000,0001.03,0000.42,0000.07,-000.06,-000.10,0000.02,0000.60,0000.83,0000.45,19.4,25.6,09.5,06.6,0676.3,31.1
2021-06-05T20:41:00Z,00000200,00000000,0001.06,0000.86,0000.40,0000.28,0000.42,0000.37,0000.28,0000.40,0000.42,19.4,25.6,09.4,06.5,0676.3,31.1
2021-06-05T20:42:00Z,00000200,00000000,0001.03,0000.69,0000.40,0000.11,0000.25,0000.25,0000.58,0000.22,0000.12,19.4,25.6,09.5,06.5,0676.3,31.1
2021-06-05T20:43:00Z,00000200,00000000,0001.31,0000.49,0000.24,-000.12,0000.17,-000.01,-000.01,0000.13,0000.27,19.4,25.5,09.4,06.5,0676.3,31.1
2021-06-05T20:44:00Z,00000200,00000000,0000.90,0000.70,0000.19,0000.48,0000.18,0000.20,0000.35,0000.29,-000.21,19.4,25.6,09.5,06.5,0676.4,31.1
2021-06-05T20:45:00Z,00000200,00000000,0001.10,0000.94,0000.14,0000.11,-000.00,0000.07,0000.63,0000.53,0000.35,19.4,25.6,09.4,06.5,0676.4,31.1
2021-06-05T20:46:00Z,00000200,00000000,0000.65,0000.70,0000.47,0000.67,0000.08,0000.35,0000.68,0000.56,0000.36,19.4,25.5,09.4,06.4,0676.4,31.1
2021-06-05T20:47:00Z,00000200,00000000,0001.07,0000.71,0000.24,-000.01,0000.02,-000.00,0000.18,0000.11,0000.20,19.4,25.5,09.3,06.4,0676.4,31.1
2021-06-05T20:48:00Z,00000200,00000000,0001.67,0000.49,0000.51,0000.35,0000.14,0000.18,0000.11,0000.38,0000.87,19.4,25.5,09.2,06.3,0676.4,31.1
2021-06-05T20:49:00Z,00000200,00000000,0001.13,0000.43,0000.23,0000.16,0000.05,0000.50,0000.37,0000.18,-000.21,19.4,25.5,09.1,06.2,0676.4,31.1
2021-06-05T20:50:00Z,00000200,00000000,0000.57,0000.84,0000.45,0000.04,0000.52,0000.24,0000.45,0000.37,0000.21,19.4,25.5,09.1,06.3,0676.4,31.1
2021-06-05T20:51:00Z,00000200,00000000,0000.62,0000.75,0000.22,0000.37,0000.20,0000.14,0000.61,0000.35,0000.05,19.4,25.5,09.1,06.3,0676.4,31.1
2021-06-05T20:52:00Z,00000200,00000000,0001.19,0000.63,0000.22,-000.06,0000.11,0000.17,-000.10,0000.19,0000.50,19.4,25.5,09.1,06.3,0676.4,31.1
2021-06-05T20:53:00Z,00000200,00000000,0000.99,0000.79,0000.27,0000.12,0000.11,0000.44,0000.63,0000.49,0000.25,19.4,25.5,09.0,06.2,0676.4,31.1
2021-06-05T20:54:00Z,00000200,00000000,0001.34,0000.42,0000.38,0000.35,0000.21,0000.41,0000.24,0000.31,0000.32,19.4,25.5,09.0,06.2,0676.4,31.1
2021-06-05T20:55:00Z,00000200,00000000,0000.54,0000.69,0000.27,0000.57,0000.26,-000.01,0000.55,0000.47,0000.21,19.4,25.5,09.0,06.2,0676.4,31.1
2021-06-05T20:56:00Z,00000200,00000000,0000.27,0000.52,-000.00,0000.61,0000.19,0000.13,0000.49,0000.17,0000.33,19.4,25.5,09.0,06.2,0676.4,31.1
2021-06-05T20:57:00Z,00000200,40000000,,,,,,,0000.41,0000.23,0000.23,19.4,25.6,09.8,06.7,0676.3,31.1
2021-06-05T20:58:00Z,00000200,60000000,,,,,,,-000.44,-000.31,-000.32,19.2,25.7,09.1,06.1,0675.4,31.1
2021-06-05T20:59:00Z,00000200,20000000,,,,,,,-000.15,0000.03,-000.08,19.1,25.8,09.1,06.1,0675.4,31.1
